This demonstration page uses our WeatherBlox Daily Observations layout. Learn more.

Left ArrowRight Arrow

Hourly Observations for July 1, 2021

Temp ( °F °C ) Dew Point ( °F °C ) Humidity (%) Winds ( mph kmh ) Pressure ( in mb ) Visibility ( mi km ) Precip ( " mm )
12:53 am 00:53 Clear 73 22.8 67 19.4 81 81 ESE 7 11 29.96 1015 10 16 0.00 0.00
1:53 am 01:53 Cloudy 73 22.8 66 18.9 79 79 ESE 7 11 29.96 1015 10 16 0.00 0.00
2:53 am 02:53 Clear 71 21.7 67 19.4 87 87 ESE 7 11 29.95 1014 10 16 0.00 0.00
3:53 am 03:53 Mostly Cloudy 72 22.2 65 18.3 79 79 SE 10 17 29.94 1014 10 16 0.00 0.00
4:53 am 04:53 Cloudy 72 22.2 66 18.9 82 82 ESE 12 19 29.95 1014 10 16 0.00 0.00
5:53 am 05:53 Cloudy 71 21.7 67 19.4 87 87 ESE 12 19 29.94 1014 10 16 0.00 0.00
6:53 am 06:53 Partly Cloudy 71 21.7 67 19.4 87 87 SE 14 22 29.95 1014 10 16 0.00 0.00
7:53 am 07:53 Sunny 70 21.1 67 19.4 90 90 SE 13 20 29.95 1014 10 16 0.00 0.00
8:53 am 08:53 Sunny 73 22.8 67 19.4 81 81 SE 14 22 29.96 1015 10 16 0.00 0.00
9:53 am 09:53 Sunny 74 23.3 67 19.4 79 79 SSE 14 22 29.97 1015 10 16 0.00 0.00
10:53 am 10:53 Sunny 77 25 67 19.4 71 71 SSE 13 20 29.96 1015 10 16 0.00 0.00
11:53 am 11:53 Partly Cloudy 80 26.7 67 19.4 64 64 SE 10 17 29.97 1015 10 16 0.00 0.00
12:53 pm 12:53 Mostly Cloudy 81 27.2 66 18.9 61 61 SSE 10 17 29.96 1015 10 16 0.00 0.00
1:53 pm 13:53 Mostly Cloudy 82 27.8 66 18.9 58 58 SSE 9 15 29.93 1014 10 16 0.00 0.00
2:53 pm 14:53 Partly Cloudy 86 30 66 18.9 51 51 SE 10 17 29.90 1013 10 16 0.00 0.00
3:53 pm 15:53 Partly Cloudy 88 31.1 66 18.9 48 48 ESE 14 22 29.86 1011 10 16 0.00 0.00
4:53 pm 16:53 Cloudy 87 30.6 65 18.3 48 48 SSE 7 11 29.84 1010 10 16 0.00 0.00
5:53 pm 17:53 Mostly Cloudy 89 31.7 65 18.3 45 45 SSE 12 19 29.82 1010 10 16 0.00 0.00
6:53 pm 18:53 Partly Cloudy 88 31.1 64 17.8 45 45 SE 12 19 29.81 1010 10 16 0.00 0.00
7:53 pm 19:53 Sunny 88 31.1 64 17.8 45 45 ESE 13 20 29.83 1010 10 16 0.00 0.00
8:53 pm 20:53 Cloudy 85 29.4 65 18.3 51 51 SE 7 11 29.84 1010 10 16 0.00 0.00
9:53 pm 21:53 Mostly Clear 83 28.3 65 18.3 55 55 SE 8 13 29.85 1011 10 16 0.00 0.00
10:53 pm 22:53 Clear 81 27.2 64 17.8 57 57 SSE 13 20 29.87 1012 10 16 0.00 0.00
11:53 pm 23:53 Clear 79 26.1 64 17.8 60 60 SSE 9 15 29.88 1012 10 16 0.00 0.00

Powered by AerisWeather